| time (UTC) | temp F | wind direction | speed knots | gust knots | rain 1hr in | rain 24hr in | rain mn in | humidity % | barometer mb |
| 20260901054547 | 83 | 186 | 7.0 | 12.2 | 0.00 | 0.00 | 0.00 | 67 | 990.3 |
| 20260901053029 | 84 | 194 | 6.1 | 8.7 | 0.00 | 0.00 | 0.00 | 67 | 990.2 |
| 20260901051528 | 84 | 190 | 5.2 | 9.6 | 0.00 | 0.00 | 0.00 | 66 | 990.1 |
| 20260901050010 | 84 | 196 | 5.2 | 8.7 | 0.00 | 0.00 | 0.00 | 65 | 989.9 |
| 20260901044510 | 85 | 199 | 7.0 | 9.6 | 0.00 | 0.00 | 0.00 | 64 | 989.8 |
| 20260901043059 | 85 | 191 | 7.0 | 10.4 | 0.00 | 0.00 | 0.00 | 63 | 989.8 |
| 20260901041559 | 86 | 200 | 7.8 | 11.3 | 0.00 | 0.00 | 0.00 | 61 | 989.7 |
| 20260901040103 | 86 | 194 | 7.0 | 8.7 | 0.00 | 0.00 | 0.00 | 59 | 989.7 |
| 20260901034558 | 86 | 190 | 7.0 | 11.3 | 0.00 | 0.00 | 0.00 | 56 | 989.7 |
| 20260901033058 | 85 | 188 | 7.0 | 8.7 | 0.00 | 0.00 | 0.00 | 55 | 989.5 |
| 20260901031556 | 85 | 186 | 3.5 | 6.1 | 0.00 | 0.00 | 0.00 | 49 | 989.4 |
| 20260901030054 | 85 | 136 | 0.9 | 2.6 | 0.00 | 0.00 | 0.00 | 47 | 989.2 |
| 20260901024558 | 86 | 136 | 0.0 | 0.0 | 0.00 | 0.00 | 0.00 | 44 | 989.0 |
| 20260901023039 | 87 | 136 | 0.9 | 2.6 | 0.00 | 0.00 | 0.00 | 43 | 988.8 |
| 20260901021548 | 87 | 136 | 0.0 | 1.7 | 0.00 | 0.00 | 0.00 | 43 | 988.7 |
| 20260901020018 | 88 | 135 | 0.9 | 3.5 | 0.00 | 0.00 | 0.00 | 43 | 988.5 |
| 20260901014518 | 89 | 134 | 0.9 | 2.6 | 0.00 | 0.00 | 0.00 | 42 | 988.3 |
| 20260901013006 | 90 | 133 | 0.9 | 2.6 | 0.00 | 0.00 | 0.00 | 39 | 988.1 |
| 20260901011506 | 92 | 133 | 1.7 | 4.3 | 0.00 | 0.00 | 0.00 | 37 | 988.0 |
| 20260901010015 | 93 | 138 | 3.5 | 6.1 | 0.00 | 0.00 | 0.00 | 35 | 988.0 |
| 20260901004504 | 94 | 134 | 3.5 | 7.8 | 0.00 | 0.00 | 0.00 | 34 | 988.0 |
| 20260901003003 | 95 | 142 | 4.3 | 7.8 | 0.00 | 0.00 | 0.00 | 33 | 988.0 |
| 20260901001503 | 96 | 126 | 6.1 | 9.6 | 0.00 | 0.00 | 0.00 | 33 | 987.9 |
| 20260901000001 | 96 | 134 | 4.3 | 9.6 | 0.00 | 0.00 | 0.00 | 33 | 987.8 |
| 20260831234501 | 97 | 98 | 4.3 | 9.6 | 0.00 | 0.00 | 0.00 | 34 | 987.8 |
| 20260831233043 | 97 | 136 | 5.2 | 10.4 | 0.00 | 0.00 | 0.00 | 35 | 987.9 |
| 20260831231548 | 96 | 144 | 2.6 | 8.7 | 0.00 | 0.00 | 0.00 | 35 | 987.9 |
| 20260831230028 | 96 | 140 | 7.0 | 13.0 | 0.00 | 0.00 | 0.00 | 35 | 987.9 |
| 20260831224525 | 98 | 141 | 5.2 | 12.2 | 0.00 | 0.00 | 0.00 | 35 | 988.0 |
| 20260831223015 | 99 | 130 | 6.1 | 13.0 | 0.00 | 0.00 | 0.00 | 35 | 988.0 |
| 20260831221511 | 98 | 209 | 4.3 | 14.8 | 0.00 | 0.00 | 0.00 | 35 | 988.2 |
| 20260831220047 | 98 | 119 | 4.3 | 9.6 | 0.00 | 0.00 | 0.00 | 35 | 988.2 |
| 20260831214546 | 98 | 183 | 6.1 | 9.6 | 0.00 | 0.00 | 0.00 | 36 | 988.4 |
| 20260831213040 | 97 | 202 | 7.8 | 11.3 | 0.00 | 0.00 | 0.00 | 36 | 988.5 |
| 20260831211532 | 98 | 197 | 5.2 | 9.6 | 0.00 | 0.00 | 0.00 | 34 | 988.8 |
| 20260831210029 | 97 | 178 | 7.8 | 12.2 | 0.00 | 0.00 | 0.00 | 37 | 988.9 |
| 20260831204530 | 95 | 222 | 2.6 | 7.8 | 0.00 | 0.00 | 0.00 | 39 | 989.2 |
| 20260831203026 | 96 | 142 | 6.1 | 10.4 | 0.00 | 0.00 | 0.00 | 37 | 989.5 |
| 20260831201534 | 97 | 195 | 7.8 | 14.8 | 0.00 | 0.00 | 0.00 | 37 | 989.8 |
| 20260831200022 | 98 | 137 | 7.0 | 12.2 | 0.00 | 0.00 | 0.00 | 36 | 989.9 |
| 20260831194519 | 96 | 264 | 5.2 | 13.0 | 0.00 | 0.00 | 0.00 | 40 | 990.0 |
| 20260831193100 | 95 | 202 | 6.1 | 16.5 | 0.00 | 0.00 | 0.00 | 42 | 990.2 |
| 20260831191602 | 95 | 155 | 7.8 | 13.0 | 0.00 | 0.00 | 0.00 | 41 | 990.4 |
| 20260831190042 | 95 | 160 | 8.7 | 15.6 | 0.00 | 0.00 | 0.00 | 43 | 990.7 |
| 20260831184543 | 95 | 190 | 4.3 | 13.9 | 0.00 | 0.00 | 0.00 | 43 | 990.9 |
| 20260831183020 | 95 | 163 | 4.3 | 12.2 | 0.00 | 0.00 | 0.00 | 44 | 991.0 |
| 20260831181517 | 93 | 145 | 0.0 | 8.7 | 0.00 | 0.00 | 0.00 | 49 | 991.1 |
| 20260831180054 | 92 | 192 | 5.2 | 8.7 | 0.00 | 0.00 | 0.00 | 50 | 991.3 |
| 20260831174555 | 92 | 167 | 5.2 | 10.4 | 0.00 | 0.00 | 0.00 | 50 | 991.7 |
| 20260831173034 | 91 | 152 | 5.2 | 12.2 | 0.00 | 0.00 | 0.00 | 53 | 991.8 |
| 20260831171536 | 90 | 142 | 5.2 | 10.4 | 0.00 | 0.00 | 0.00 | 56 | 991.9 |
| 20260831170015 | 91 | 188 | 4.3 | 12.2 | 0.00 | 0.00 | 0.00 | 54 | 992.1 |
| 20260831164511 | 90 | 169 | 7.0 | 12.2 | 0.00 | 0.00 | 0.00 | 58 | 992.1 |
| 20260831163053 | 89 | 221 | 5.2 | 9.6 | 0.00 | 0.00 | 0.00 | 60 | 992.0 |
| 20260831161552 | 88 | 175 | 4.3 | 10.4 | 0.00 | 0.00 | 0.00 | 59 | 992.1 |
| 20260831160049 | 88 | 236 | 5.2 | 12.2 | 0.00 | 0.00 | 0.00 | 63 | 992.0 |
| 20260831154552 | 87 | 197 | 7.0 | 11.3 | 0.00 | 0.00 | 0.00 | 63 | 991.9 |
| 20260831153044 | 86 | 223 | 7.0 | 8.7 | 0.00 | 0.00 | 0.00 | 66 | 991.9 |
| 20260831151539 | 85 | 256 | 5.2 | 8.7 | 0.00 | 0.00 | 0.00 | 66 | 991.8 |
| 20260831150036 | 84 | 227 | 4.3 | 7.8 | 0.00 | 0.00 | 0.00 | 66 | 991.7 |
| 20260831144539 | 83 | 201 | 4.3 | 8.7 | 0.00 | 0.00 | 0.00 | 64 | 991.7 |
| 20260831143030 | 82 | 219 | 3.5 | 7.0 | 0.00 | 0.00 | 0.00 | 60 | 991.7 |
| 20260831141525 | 81 | 227 | 4.3 | 7.8 | 0.00 | 0.00 | 0.00 | 49 | 991.6 |
| 20260831140023 | 80 | 252 | 2.6 | 7.0 | 0.00 | 0.00 | 0.00 | 41 | 991.5 |
| 20260831134509 | 79 | 213 | 2.6 | 4.3 | 0.00 | 0.00 | 0.00 | 36 | 991.5 |
| 20260831133008 | 79 | 210 | 0.9 | 3.5 | 0.00 | 0.00 | 0.00 | 34 | 991.4 |
| 20260831131505 | 78 | 217 | 0.0 | 0.0 | 0.00 | 0.00 | 0.00 | 29 | 991.2 |
| 20260831130106 | 76 | 217 | 0.0 | 0.0 | 0.00 | 0.00 | 0.00 | 27 | 991.0 |
| 20260831124608 | 76 | 217 | 0.0 | 0.0 | 0.00 | 0.00 | 0.00 | 28 | 990.8 |
| 20260831123058 | 76 | 217 | 0.0 | 0.0 | 0.00 | 0.00 | 0.00 | 28 | 990.8 |
| 20260831121555 | 76 | 217 | 0.9 | 2.6 | 0.00 | 0.00 | 0.00 | 31 | 990.7 |
| 20260831120054 | 76 | 217 | 1.7 | 3.5 | 0.00 | 0.00 | 0.00 | 31 | 990.7 |
| 20260831114549 | 76 | 217 | 3.5 | 5.2 | 0.00 | 0.00 | 0.00 | 31 | 990.6 |
| 20260831113038 | 76 | 207 | 2.6 | 4.3 | 0.00 | 0.00 | 0.00 | 34 | 990.5 |
| 20260831111516 | 76 | 207 | 2.6 | 4.3 | 0.00 | 0.00 | 0.00 | 35 | 990.4 |
| 20260831110019 | 76 | 207 | 2.6 | 4.3 | 0.00 | 0.00 | 0.00 | 38 | 990.2 |
| 20260831104503 | 77 | 221 | 2.6 | 4.3 | 0.00 | 0.00 | 0.00 | 38 | 990.3 |
| 20260831103101 | 77 | 223 | 2.6 | 6.1 | 0.00 | 0.00 | 0.00 | 40 | 990.2 |
| 20260831101600 | 77 | 226 | 5.2 | 8.7 | 0.00 | 0.00 | 0.00 | 40 | 990.4 |
| 20260831100118 | 77 | 215 | 3.5 | 7.0 | 0.00 | 0.00 | 0.00 | 44 | 990.5 |
| 20260831094554 | 76 | 220 | 3.5 | 5.2 | 0.00 | 0.00 | 0.00 | 47 | 990.3 |
| 20260831093051 | 77 | 221 | 4.3 | 6.1 | 0.00 | 0.00 | 0.00 | 50 | 990.2 |
| 20260831091553 | 77 | 211 | 4.3 | 7.0 | 0.00 | 0.00 | 0.00 | 53 | 990.1 |
| 20260831090048 | 77 | 207 | 3.5 | 7.0 | 0.00 | 0.00 | 0.00 | 56 | 990.2 |
| 20260831084527 | 77 | 219 | 3.5 | 6.1 | 0.00 | 0.00 | 0.00 | 59 | 990.2 |
| 20260831083027 | 77 | 213 | 3.5 | 7.0 | 0.00 | 0.00 | 0.00 | 62 | 990.3 |
| 20260831081509 | 78 | 213 | 3.5 | 7.0 | 0.00 | 0.00 | 0.00 | 64 | 990.2 |
| 20260831080009 | 78 | 205 | 4.3 | 7.0 | 0.00 | 0.00 | 0.00 | 65 | 990.2 |
| 20260831074603 | 78 | 191 | 4.3 | 6.1 | 0.00 | 0.00 | 0.00 | 67 | 990.3 |
| 20260831073055 | 79 | 200 | 2.6 | 5.2 | 0.00 | 0.00 | 0.00 | 67 | 990.3 |
| 20260831071606 | 79 | 197 | 2.6 | 4.3 | 0.00 | 0.00 | 0.00 | 68 | 990.4 |
| 20260831070054 | 80 | 198 | 1.7 | 5.2 | 0.00 | 0.00 | 0.00 | 68 | 990.4 |
| 20260831064554 | 80 | 198 | 2.6 | 5.2 | 0.00 | 0.00 | 0.00 | 68 | 990.4 |
| 20260831063058 | 81 | 200 | 4.3 | 7.0 | 0.00 | 0.00 | 0.00 | 68 | 990.5 |
| 20260831061553 | 81 | 205 | 4.3 | 7.0 | 0.00 | 0.00 | 0.00 | 68 | 990.3 |
| 20260831060101 | 82 | 197 | 4.3 | 7.0 | 0.00 | 0.00 | 0.00 | 67 | 990.2 |